This is the latest recevied weather packets stored in our database for station/object KC4BAM. If no packets are shown the sender has not sent any weather packets the latest 10 day(s).
| Time | Temp. | Humidity | Pressure | Rain* | Wind** | Luminosity | Snow |
|---|---|---|---|---|---|---|---|
| 1778061891 | 10.56° C | 97% | 1000.6 hPa | 0 mm | - | 0 W/m² | - |
| 1778061589 | 10.56° C | 97% | 1000.5 hPa | 0 mm | - | 0 W/m² | - |
| 1778061287 | 10.56° C | 97% | 1000.5 hPa | 0 mm | - | 0 W/m² | - |
| 1778060983 | 10.56° C | 97% | 1000.4 hPa | 0 mm | - | 0 W/m² | - |
| 1778060682 | 10.56° C | 97% | 1000.1 hPa | 0 mm | - | 0 W/m² | - |
| 1778060379 | 10.56° C | 97% | 1000.2 hPa | 0 mm | - | 0 W/m² | - |
| 1778060077 | 10.56° C | 97% | 1000.1 hPa | 0 mm | - | 0 W/m² | - |
| 1778059774 | 10.56° C | 97% | 1000 hPa | 0 mm | - | 0 W/m² | - |
| 1778059472 | 10.56° C | 97% | 1000.2 hPa | 0 mm | - | 0 W/m² | - |
| 1778059168 | 10.56° C | 96% | 1000.4 hPa | 0 mm | - | 0 W/m² | - |
| 1778058867 | 10.56° C | 96% | 1000.3 hPa | 1.78 mm | - | 0 W/m² | - |
| 1778058563 | 10.56° C | 96% | 1000.3 hPa | 7.87 mm | - | 0 W/m² | - |
| 1778058261 | 10.56° C | 96% | 1000.5 hPa | 4.83 mm | - | 0 W/m² | - |
| 1778057958 | 10.56° C | 96% | 1001 hPa | 0 mm | - | 0 W/m² | - |
| 1778057654 | 10.56° C | 96% | 1000.4 hPa | 0 mm | - | 0 W/m² | - |
| 1778057350 | 10.56° C | 96% | 1000.5 hPa | 0 mm | - | 0 W/m² | - |
| 1778057048 | 10.56° C | 96% | 1000.4 hPa | 0 mm | - | 0 W/m² | - |
| 1778056744 | 10.56° C | 96% | 1000.6 hPa | 0 mm | - | 0 W/m² | - |
| 1778056441 | 10.56° C | 96% | 1000.6 hPa | 0 mm | - | 0 W/m² | - |
| 1778056138 | 10.56° C | 96% | 1000 hPa | 0 mm | - | 0 W/m² | - |
| 1778055835 | 10.56° C | 96% | 1000.2 hPa | 0 mm | - | 0 W/m² | - |
| 1778055531 | 10.56° C | 96% | 999.9 hPa | 0 mm | - | 0 W/m² | - |
| 1778055230 | 11.11° C | 96% | 1000.5 hPa | 1.27 mm | - | 0 W/m² | - |
| 1778054927 | 11.11° C | 96% | 1000.2 hPa | 4.83 mm | - | 0 W/m² | - |
| 1778054623 | 11.11° C | 96% | 1000.1 hPa | 4.83 mm | - | 0 W/m² | - |
* Rain latest hour (hover to see other rain measurements)
** Current wind speed in m/s (hover to see current wind gust speed)